Location: Chuathbaluk
(61.5726°N, 159.2454°W)
Time: 13:51:52
(UTC+00:00)

XW-2F - Pass Details

Date: 25 January 2021
Orbit: 500 x 520 km, 97.5° (Epoch: 01 March)

Event Time Altitude Azimuth Distance (km) Brightness Sun altitude
Rises 04:56:59 0° 209° (SSW) 2,623 ? -17.5°
Reaches altitude 10° 04:59:39 10° 230° (SW) 1,746 ? -17.8°
Maximum altitude 05:02:12 17° 273° (W) 1,359 ? -18.1°
Drops below altitude 10° 05:04:46 10° 316° (NW) 1,763 ? -18.4°
Sets 05:07:29 0° 336° (NNW) 2,660 ? -18.7°
